MST,Max TemperatureF,Mean TemperatureF,Min TemperatureF,Max Dew PointF,MeanDew PointF,Min DewpointF,Max Humidity, Mean Humidity, Min Humidity, Max Sea Level PressureIn, Mean Sea Level PressureIn, Min Sea Level PressureIn, Max VisibilityMiles, Mean VisibilityMiles, Min VisibilityMiles, Max Wind SpeedMPH, Mean Wind SpeedMPH, Max Gust SpeedMPH,PrecipitationIn, CloudCover, Events, WindDirDegrees
2010-11-1,62,52,42,37,31,27,76,45,27,30.40,30.32,30.18,10,10,10,17,8,23,0.00,3,,10
2010-11-2,71,52,32,36,29,25,80,48,25,30.44,30.40,30.35,10,10,2,15,3,21,0.00,0,,351
2010-11-3,64,52,41,36,33,28,66,49,31,30.60,30.51,30.42,10,10,2,15,7,,0.00,1,,13
2010-11-4,57,42,28,32,24,18,93,54,23,30.54,30.42,30.27,10,10,10,10,4,,0.00,0,,154
2010-11-5,71,50,30,28,24,19,81,47,15,30.24,30.15,30.06,10,10,9,8,4,,0.00,0,,141
2010-11-6,73,55,37,34,28,25,70,41,18,30.15,30.11,30.06,10,10,9,7,4,,0.00,0,,31
2010-11-7,68,54,39,34,28,25,70,40,22,30.07,30.00,29.93,10,10,10,28,8,38,0.00,1,,226
2010-11-8,66,50,33,28,26,23,75,47,22,29.90,29.78,29.60,10,10,7,9,5,,0.00,0,,9
2010-11-9,51,42,33,36,30,25,93,68,43,29.84,29.66,29.55,10,10,4,17,7,24,0.26,5,,10
2010-11-10,39,34,28,30,28,27,100,80,65,30.02,29.91,29.84,10,9,0,14,5,17,0.00,4,,107
2010-11-11,33,32,30,30,28,27,100,89,75,30.31,30.18,30.07,10,6,0,14,10,,0.10,8,,2
2010-11-12,39,28,17,30,25,18,100,85,70,30.36,30.31,30.28,10,9,0,9,3,,0.04,2,,35
2010-11-13,39,32,26,28,27,25,93,81,60,30.31,30.20,30.10,10,9,4,10,4,,0.00,6,,141
2010-11-14,39,32,26,28,26,25,93,82,61,30.07,29.94,29.80,10,8,2,12,5,,0.00,6,,167
2010-11-15,42,35,28,32,29,25,93,80,57,29.89,29.78,29.68,10,8,0,8,4,,0.02,7,,348
2010-11-16,53,40,28,36,28,25,93,69,33,29.84,29.65,29.48,10,10,4,28,7,51,0.00,2,,290
2010-11-17,39,32,24,25,24,19,86,72,56,30.21,30.20,30.15,10,10,10,13,8,18,0.00,0,,141
2010-11-18,59,40,21,30,24,16,93,71,20,30.14,30.03,29.88,10,10,10,18,3,29,0.00,0,,10
2010-11-19,53,43,30,28,20,10,86,41,18,29.92,29.89,29.84,10,10,10,15,7,,0.00,0,,103
2010-11-20,33,30,26,28,27,25,93,88,75,29.88,29.80,29.69,10,9,4,8,4,,0.00,8,,30
2010-11-21,41,32,23,30,26,21,100,86,61,29.71,29.63,29.58,10,6,0,18,7,21,0.00,6,,100
2010-11-22,41,30,19,27,17,9,100,60,28,29.84,29.71,29.61,10,9,1,24,10,32,0.02,3,,206
2010-11-23,44,30,15,18,14,7,93,58,31,29.93,29.79,29.57,10,10,10,9,5,,0.00,0,,17
2010-11-24,35,28,19,23,8,-11,86,42,22,29.78,29.56,29.39,10,10,7,30,10,41,0.00,2,,232
2010-11-25,37,22,8,1,-4,-15,62,34,20,29.91,29.83,29.71,10,10,10,16,8,23,0.00,0,,119
2010-11-26,48,31,14,19,11,5,79,49,24,30.14,30.09,30.04,10,10,10,8,3,,0.00,0,,167
2010-11-27,48,34,19,23,17,10,80,54,34,30.07,29.89,29.70,10,10,10,8,2,,0.00,0,,3
2010-11-28,50,34,19,23,17,10,80,55,24,29.54,29.41,29.30,10,10,10,18,5,23,0.00,2,,15
2010-11-29,32,28,24,23,11,5,75,50,35,30.12,29.85,29.54,10,10,10,30,18,40,0.00,4,,341
2010-11-30,39,24,8,10,7,1,86,55,21,30.15,30.10,30.04,10,10,10,12,5,,0.00,0,,126